Moose, Wyoming, United States (83012)
Lat: 43.66N, Lon: 110.72W
Wx Zone: WYZ013
Local Info
Past Weather Observations for Wednesday, February 3, 2016

NOTE: This archive is for the closest National Weather Service station to Moose. Information may differ from the station used for current weather conditions.

Click here for Long-term Archive

Time Weather Temperature Dewpoint Humidity Pressure Winds Precip Visibility
23:55
Overcast
3°F / -16°C 1°F / -17°C 92% 30.21 in
(1023 mb)
SSE 4.6 mph
(SSE 7 kph)
- 10SM
23:35
Overcast
9°F / -13°C 5°F / -15°C 85% 30.21 in
(1023 mb)
SW 6.9 mph
(SW 11 kph)
- 10SM
23:15
Overcast
9°F / -13°C 7°F / -14°C 92% 30.21 in
(1023 mb)
SW 10.4 mph
(SW 17 kph)
- 10SM
22:55
Mostly Cloudy
9°F / -13°C 5°F / -15°C 85% 30.21 in
(1023 mb)
SW 10.4 mph
(SW 17 kph)
- 10SM
22:35
Partly Cloudy
7°F / -14°C 3°F / -16°C 85% 30.21 in
(1023 mb)
SW 8.1 mph
(SW 13 kph)
- 10SM
22:15
Clear
9°F / -13°C 3°F / -16°C 78% 30.21 in
(1023 mb)
SSE 9.2 mph
(SSE 15 kph)
- 10SM
21:55
Clear
9°F / -13°C 3°F / -16°C 78% 30.21 in
(1023 mb)
S 8.1 mph
(S 13 kph)
- 10SM
21:35
Clear
9°F / -13°C 5°F / -15°C 85% 30.21 in
(1023 mb)
S 11.5 mph
(S 19 kph)
- 10SM
21:15
Clear
10°F / -12°C 5°F / -15°C 79% 30.21 in
(1023 mb)
S 11.5 mph
(S 19 kph)
- 10SM
19:51
Clear
10°F / -12°C 7°F / -14°C 85% 30.18 in
(1022 mb)
S 11.5 mph
(S 19 kph)
- 10SM
18:56
Clear
16°F / -9°C 9°F / -13°C 73% 30.18 in
(1022 mb)
SW 11.5 mph
(SW 19 kph)
- 10SM
17:57
Clear
14°F / -10°C 7°F / -14°C 73% 30.18 in
(1022 mb)
SW 11.5 mph
(SW 19 kph)
- 10SM
17:02
Clear
18°F / -8°C 9°F / -13°C 68% 30.15 in
(1021 mb)
SW 16.1 mph
(SW 26 kph)
- 10SM
15:51
Partly Cloudy
19°F / -7°C 7°F / -14°C 58% 30.18 in
(1022 mb)
SW 17.3 mph
(SW 28 kph)
- 10SM
14:51
Clear
16°F / -9°C 9°F / -13°C 73% 30.15 in
(1021 mb)
Calm - 10SM
13:51
Clear
16°F / -9°C 9°F / -13°C 73% 30.15 in
(1021 mb)
Calm - 10SM
12:51
Clear
16°F / -9°C 9°F / -13°C 73% 30.18 in
(1022 mb)
Calm - 10SM
11:51
Clear
12°F / -11°C 7°F / -14°C 79% 30.18 in
(1022 mb)
Calm - 10SM
10:51
Partly Cloudy
9°F / -13°C 3°F / -16°C 78% 30.18 in
(1022 mb)
Variable 5.8 mph
(Variable 9 kph)
- 10SM
09:55
Clear
3°F / -16°C 1°F / -17°C 92% 30.18 in
(1022 mb)
Variable 5.8 mph
(Variable 9 kph)
- 10SM
08:51
Partly Cloudy
1°F / -17°C °F / -18°C 92% 30.15 in
(1021 mb)
Calm - 10SM
07:51
Mostly Cloudy
Showers In Vicinity
5°F / -15°C 3°F / -16°C 92% 30.15 in
(1021 mb)
Calm - 10SM
06:51
Overcast
Showers In Vicinity
5°F / -15°C 5°F / -15°C 100% 30.12 in
(1020 mb)
N 9.2 mph
(N 15 kph)
- 10SM
06:35
Overcast
5°F / -15°C 3°F / -16°C 92% 30.12 in
(1020 mb)
N 5.8 mph
(N 9 kph)
- 10SM
06:15
Overcast
7°F / -14°C 3°F / -16°C 85% 30.12 in
(1020 mb)
NE 3.5 mph
(NE 6 kph)
- 10SM
05:55
Overcast
7°F / -14°C 3°F / -16°C 85% 30.09 in
(1019 mb)
N 8.1 mph
(N 13 kph)
- 10SM
05:35
Overcast
3°F / -16°C 1°F / -17°C 92% 30.09 in
(1019 mb)
N 9.2 mph
(N 15 kph)
- 10SM
05:15
Overcast
3°F / -16°C 1°F / -17°C 92% 30.09 in
(1019 mb)
N 9.2 mph
(N 15 kph)
- 10SM
04:55
Overcast
3°F / -16°C 3°F / -16°C 100% 30.09 in
(1019 mb)
N 10.4 mph
(N 17 kph)
- 10SM
04:35
Overcast
5°F / -15°C 3°F / -16°C 92% 30.09 in
(1019 mb)
N 8.1 mph
(N 13 kph)
- 10SM
04:15
Overcast
5°F / -15°C 3°F / -16°C 92% 30.09 in
(1019 mb)
N 9.2 mph
(N 15 kph)
- 10SM
03:55
Overcast
7°F / -14°C 3°F / -16°C 85% 30.06 in
(1018 mb)
Calm - 10SM
03:35
Overcast
7°F / -14°C 3°F / -16°C 85% 30.06 in
(1018 mb)
Calm - 7SM
03:15
Overcast
7°F / -14°C 3°F / -16°C 85% 30.06 in
(1018 mb)
N 5.8 mph
(N 9 kph)
- 10SM
02:55
Overcast
9°F / -13°C 5°F / -15°C 85% 30.06 in
(1018 mb)
NE 5.8 mph
(NE 9 kph)
- 10SM
02:35
Overcast
9°F / -13°C 5°F / -15°C 85% 30.06 in
(1018 mb)
W 3.5 mph
(W 6 kph)
- 10SM
02:15
Overcast
7°F / -14°C 3°F / -16°C 85% 30.06 in
(1018 mb)
Calm - 10SM
01:55
Overcast
9°F / -13°C 3°F / -16°C 78% 30.06 in
(1018 mb)
Calm - 10SM
01:35
Mostly Cloudy
7°F / -14°C 3°F / -16°C 85% 30.06 in
(1018 mb)
NNW 3.5 mph
(NNW 6 kph)
- 10SM
01:15
Overcast
7°F / -14°C 3°F / -16°C 85% 30.06 in
(1018 mb)
NNE 3.5 mph
(NNE 6 kph)
- 10SM
00:55
Overcast
7°F / -14°C 1°F / -17°C 78% 30.06 in
(1018 mb)
N 9.2 mph
(N 15 kph)
- 10SM
00:35
Mostly Cloudy
5°F / -15°C 1°F / -17°C 85% 30.06 in
(1018 mb)
N 4.6 mph
(N 7 kph)
- 10SM
00:15
Overcast
7°F / -14°C 1°F / -17°C 78% 30.06 in
(1018 mb)
N 3.5 mph
(N 6 kph)
- 10SM
Time Weather Temperature Dewpoint Humidity Pressure Winds Precip Visibility


Weather for websites

WeatherForYou.com, LLC is not responsible for any damages or problems caused by this service. Current weather conditions are obtained from the closest station including government and personal stations which may have varying degrees of accuracy. Weather forecasts are derived from the NOAA NDFD. Like all things, this site belongs to Jesus Christ... He just trusts us to maintain it. If you have any questions or comments email webmaster@weatherforyou.com

Copyright © 2016, WeatherForYou.com LLC. All rights reserved.